Regional Weather Roundup
Issued by NWS Jackson, KY

Home | Current Version | Previous Version | Graphics & Text | Print | Product List | Glossary On
Versions: 1 2 3 4 5 6 7 8 9 10 11 12 13 14 15 16 17 18 19 20 21 22 23 24 25 26 27 28 29 30 31 32 33 34 35 36 37 38 39 40 41 42 43 44 45 46 47 48 49 50
615
ASUS43 KJKL 022310
RWRJKL

EAST KENTUCKY HOURLY WEATHER ROUNDUP
NATIONAL WEATHER SERVICE JACKSON KY
600 PM EST FRI DEC 02 2016

NOTE: "FAIR" INDICATES FEW OR NO CLOUDS BELOW 12,000 FEET WITH
NO SIGNIFICANT WEATHER AND/OR OBSTRUCTIONS TO VISIBILITY.

* THESE REPORTS ARE NOT UNDER NWS QUALITY CONTROL AND MAY NOT
  REPORT WEATHER SUCH AS PRECIPITATION AND FOG.

KYZ079-080-083-085-087-088-110-112-115-119-120-030000
...EASTERN KENTUCKY...

CITY           SKY/WX    TMP DP  RH WIND       PRES   REMARKS
JACKSON        CLEAR     39  29  67 N3        30.22R
LONDON         CLEAR     44  25  47 W6        30.23R
SOMERSET*      CLEAR     45  27  49 CALM      30.26R
MONTICELLO*    CLEAR     39  29  67 W6        30.27R WCI  35
WILLIAMSBURG*  CLEAR     46  27  46 W3        30.23R
MIDDLESBORO*   CLEAR     42  29  61 CALM      30.23R
HARLAN APT*    CLEAR     45  23  42 W6        30.20R
PIKE CO APT*     N/A     38  30  73 N8        30.21R WCI  32
BIG SANDY APT* CLOUDY    38  30  71 N6        30.23R WCI  34
MOREHEAD APT*  CLOUDY    37  28  70 NW6       30.26S WCI  33
ASHLAND*       CLOUDY    39  28  65 W5        30.24R
$$

KYZ035-036-041-042-044-050-067-078-099-030000
...CENTRAL KENTUCKY...

CITY           SKY/WX    TMP DP  RH WIND       PRES   REMARKS
MT STERLING*   CLOUDY    37  32  81 N6        30.27R WCI  33
FLEMING/MASON* CLOUDY    37  29  74 W6        30.27R WCI  32
DANVILLE*      CLEAR     37  30  75 N3        30.26R
LEXINGTON      MOCLDY    40  29  64 N6        30.26R
FRANKFORT      CLOUDY    42  29  59 NW3       30.26R
LOUISVILLE     CLOUDY    44  28  53 N10       30.28R
LEBANON*         N/A     39  30  70 CALM      30.27R
GLASGOW*       CLEAR     44  30  59 W3        30.26S
BOWLING GREEN  CLEAR     48  28  46 NW3       30.28R
$$

KYZ091>093-OHZ055-061-077-WVZ005-015-034-035-042-030000
...SOUTHERN OHIO/WEST VIRGINIA...

CITY           SKY/WX    TMP DP  RH WIND       PRES   REMARKS
COVINGTON      CLOUDY    39  30  70 W9        30.25R WCI  33
COLUMBUS       CLOUDY    38  31  76 W15       30.20R WCI  29
DAYTON         CLOUDY    38  29  70 W13       30.23R WCI  30
WILMINGTON     CLOUDY    38  30  73 NW9       30.22R WCI  31
HUNTINGTON     CLOUDY    39  28  64 W7        30.24S WCI  34
CHARLESTON     CLOUDY    38  28  67 W10G17    30.23R WCI  31
PINEVILLE*     CLOUDY    40  28  63 MISG      30.23R
BECKLEY        CLOUDY    35  26  69 NW13      30.15S WCI  26
BLUEFIELD      CLEAR     36  26  67 NW9       30.12S WCI  29
LOGAN CO APT*  CLOUDY    37  28  70 NW7G14    30.20R WCI  32
$$

VAZ002-007-008-TNZ017-027-036-066-071-030000
...SOUTHWEST VIRGINIA/EAST TENNESSEE...

CITY           SKY/WX    TMP DP  RH WIND       PRES   REMARKS
WISE*          CLEAR     41  27  56 W5        30.18R
JONESVILLE*      N/A     45  27  49 CALM      30.22R
ABINGDON*      CLEAR     45  26  46 W6        30.16R
BRISTOL        PTCLDY    42  28  57 SW6       30.18R
MORRISTOWN*    CLEAR     48  30  49 W7        30.20R
SEVIERVILLE*   CLEAR     45  28  53 CALM      30.22R
KNOXVILLE      PTCLDY    47  30  51 SW7       30.22R
OAK RIDGE      CLEAR     54  25  32 W3        30.25R
CROSSVILLE     CLEAR     45  27  49 W5        30.25R
NASHVILLE      PTCLDY    51  28  41 N8        30.27R
$$

...KEY TO REMARKS...
VSB - VISIBILITY IN MILES
WCI - WIND CHILL INDEX
HX  - HEAT INDEX

$$




USA.gov is the U.S. government's official web portal to all federal, state and local government web resources and services.